Date String (YYYY-MM-DD hh:mm:ss) UTC,Instrument flags,Ambient pressure (hPa),Sample flow (lpm),Bypass flow (lpm),Sample temperature (°C),Ambient temperature (°C),ASC tube jacket temperature (°C),LED temperature (°C),Box temperature (°C),Sample RH (%),Span deviation,Mass concentration (μg/m³),Mass concentration (μg/m³),Mass concentration (μg/m³)
DateTimeUTC,F1_M11,P_M11,Q1_M11,Q2_M11,T1_M11,T2_M11,T3_M11,T4_M11,T5_M11,U1_M11,ZSPAN_M11,X0_M11,X2_M11,X1_M11
2022-02-24 19:00:00,,0821.7,5.00,0.00,21.7,21.0,00.0,30.8,23.2,05.4,-001.0,0012.01,0006.70,0005.92
2022-02-24 19:01:00,,0821.6,5.00,0.00,21.6,20.8,00.0,30.8,23.1,05.4,-001.1,0011.65,0006.73,0005.94
2022-02-24 19:02:00,,0821.5,5.00,0.00,21.5,20.8,00.0,30.8,23.0,05.5,-000.9,0011.67,0006.76,0005.97
2022-02-24 19:03:00,,0821.6,5.00,0.00,21.5,21.3,00.0,30.8,23.2,05.4,-000.5,0011.76,0006.78,0005.99
2022-02-24 19:04:00,,0821.7,5.00,0.00,21.7,22.3,00.0,30.8,23.5,05.5,-000.2,0011.71,0006.80,0006.01
2022-02-24 19:05:00,,0821.7,5.01,0.00,21.9,23.2,00.0,30.8,23.9,05.4,0000.4,0011.34,0006.82,0006.04
2022-02-24 19:06:00,,0821.7,4.99,0.00,22.0,23.1,00.0,30.9,24.0,05.3,0000.8,0011.22,0006.78,0006.08
2022-02-24 19:07:00,,0821.7,5.00,0.00,22.0,22.8,00.0,30.9,23.9,05.3,0001.6,0011.42,0006.83,0006.13
2022-02-24 19:08:00,,0821.7,4.99,0.00,22.0,22.4,00.0,30.9,23.8,05.3,0001.6,0011.19,0006.86,0006.18
2022-02-24 19:09:00,,0821.7,5.01,0.00,22.0,22.2,00.0,30.9,23.8,05.4,0002.2,0010.61,0006.86,0006.19
2022-02-24 19:10:00,,0821.7,5.00,0.00,22.0,22.0,00.0,30.9,23.7,05.5,0002.8,0010.72,0006.88,0006.22
2022-02-24 19:11:00,,0821.7,5.00,0.00,22.0,21.8,00.0,30.9,23.7,05.4,0002.5,0010.70,0006.90,0006.25
2022-02-24 19:12:00,,0821.6,4.99,0.00,21.9,21.6,00.0,30.9,23.7,05.3,0002.3,0011.27,0006.89,0006.29
2022-02-24 19:13:00,,0821.5,4.99,0.00,21.9,21.5,00.0,30.9,23.6,05.4,0001.9,0011.49,0006.92,0006.33
2022-02-24 19:14:00,,0821.5,5.01,0.00,21.9,21.5,00.0,30.9,23.7,05.4,0001.9,0011.51,0006.98,0006.39
2022-02-24 19:15:00,,0821.5,5.00,0.00,21.9,21.4,00.0,30.9,23.7,05.3,0001.7,0011.52,0007.04,0006.45
2022-02-24 19:16:00,,0821.6,5.00,0.00,21.9,21.4,00.0,30.9,23.7,05.4,0001.2,0011.59,0007.09,0006.50
2022-02-24 19:17:00,,0821.7,5.00,0.00,22.0,21.4,00.0,30.9,23.8,05.4,0001.2,0011.46,0007.13,0006.54
2022-02-24 19:18:00,,0821.7,5.00,0.00,22.0,21.5,00.0,30.9,23.8,05.4,0001.0,0011.28,0007.11,0006.55
2022-02-24 19:19:00,,0821.7,5.00,0.00,22.0,21.5,00.0,30.9,23.9,05.4,0000.6,0011.65,0007.11,0006.56
2022-02-24 19:20:00,,0821.7,5.00,0.00,22.0,21.5,00.0,30.9,23.9,05.3,0000.3,0011.71,0007.15,0006.60
2022-02-24 19:21:00,,0821.7,5.00,0.00,22.0,21.5,00.0,30.9,23.9,05.3,-000.1,0011.71,0007.21,0006.65
2022-02-24 19:22:00,,0821.7,5.00,0.00,22.1,21.5,00.0,31.0,23.9,05.3,-000.2,0012.21,0007.24,0006.68
2022-02-24 19:23:00,,0821.6,4.99,0.00,22.1,21.5,00.0,31.0,23.9,05.3,-000.1,0011.78,0007.27,0006.70
2022-02-24 19:24:00,,0821.7,5.00,0.00,22.1,21.5,00.0,31.0,23.9,05.2,0000.6,0011.78,0007.34,0006.77
2022-02-24 19:25:00,,0821.6,4.99,0.00,22.1,21.4,00.0,31.0,23.9,05.2,0001.3,0012.03,0007.41,0006.83
2022-02-24 19:26:00,,0821.5,5.00,0.00,22.1,21.4,00.0,31.0,23.8,05.2,0001.1,0012.08,0007.47,0006.89
2022-02-24 19:27:00,,0821.5,5.01,0.00,22.0,21.4,00.0,31.0,23.8,05.2,0001.0,0012.93,0007.50,0006.91
2022-02-24 19:28:00,,0821.4,5.01,0.00,22.0,21.3,00.0,31.0,23.8,05.1,0000.4,0013.24,0007.57,0006.96
2022-02-24 19:29:00,,0821.5,5.00,0.00,22.0,21.3,00.0,30.9,23.7,05.2,0000.4,0013.41,0007.67,0007.03
2022-02-24 19:30:00,,0821.5,5.00,0.00,22.0,21.3,00.0,30.9,23.7,05.2,0000.9,0013.43,0007.76,0007.10
2022-02-24 19:31:00,,0821.5,4.99,0.00,22.0,21.3,00.0,30.9,23.8,05.3,0001.7,0013.67,0007.83,0007.15
2022-02-24 19:32:00,,0821.5,5.00,0.00,22.0,21.3,00.0,30.9,23.8,05.4,0001.7,0013.72,0007.85,0007.18
2022-02-24 19:33:00,,0821.5,5.00,0.00,22.0,21.3,00.0,30.9,23.8,05.3,0001.5,0013.80,0007.88,0007.23
2022-02-24 19:34:00,,0821.5,5.01,0.00,22.0,21.3,00.0,30.9,23.8,05.3,0001.5,0013.47,0007.91,0007.27
2022-02-24 19:35:00,,0821.4,4.99,0.00,22.0,21.4,00.0,30.9,23.8,05.3,0001.6,0013.34,0007.91,0007.29
2022-02-24 19:36:00,,0821.5,5.00,0.00,22.0,21.4,00.0,30.9,23.9,05.3,0001.3,0013.04,0007.91,0007.30
2022-02-24 19:37:00,,0821.4,5.00,0.00,22.1,21.5,00.0,31.0,23.9,05.4,0001.3,0012.97,0007.88,0007.29
2022-02-24 19:38:00,,0821.4,5.01,0.00,22.1,21.6,00.0,31.0,24.0,05.4,0001.2,0012.62,0007.89,0007.28
2022-02-24 19:39:00,,0821.5,5.00,0.00,22.1,21.6,00.0,31.0,24.0,05.4,0001.2,0012.30,0007.87,0007.28
2022-02-24 19:40:00,,0821.4,5.00,0.00,22.2,21.6,00.0,31.0,24.1,05.5,0001.3,0012.21,0007.83,0007.25
2022-02-24 19:41:00,,0821.5,5.00,0.00,22.2,21.7,00.0,31.0,24.1,05.4,0000.7,0012.20,0007.82,0007.23
2022-02-24 19:42:00,,0821.4,5.00,0.00,22.2,21.7,00.0,31.0,24.1,05.3,0000.4,0011.72,0007.83,0007.22
2022-02-24 19:43:00,,0821.4,5.00,0.00,22.2,21.7,00.0,31.0,24.1,05.4,0000.1,0011.68,0007.82,0007.21
2022-02-24 19:44:00,,0821.4,5.00,0.00,22.3,21.7,00.0,31.1,24.1,05.3,-000.2,0011.48,0007.81,0007.20
2022-02-24 19:45:00,,0821.4,5.00,0.00,22.3,21.7,00.0,31.1,24.1,05.3,-000.1,0011.47,0007.84,0007.19
2022-02-24 19:46:00,,0821.4,5.00,0.00,22.3,21.7,00.0,31.1,24.1,05.4,-000.5,0011.61,0007.83,0007.15
2022-02-24 19:47:00,,0821.4,5.00,0.00,22.3,21.7,00.0,31.1,24.2,05.5,-000.5,0012.19,0007.79,0007.11
2022-02-24 19:48:00,,0821.4,5.00,0.00,22.3,21.8,00.0,31.1,24.2,05.7,-001.0,0012.80,0007.79,0007.08
2022-02-24 19:49:00,,0821.3,5.00,0.00,22.3,21.8,00.0,31.1,24.2,05.7,-001.0,0012.82,0007.74,0007.05
2022-02-24 19:50:00,,0821.4,5.00,0.00,22.4,21.8,00.0,31.1,24.2,05.6,-000.7,0012.82,0007.76,0007.04
2022-02-24 19:51:00,,0821.4,5.00,0.00,22.4,21.8,00.0,31.1,24.2,05.5,-000.8,0012.86,0007.78,0007.04
2022-02-24 19:52:00,,0821.4,5.00,0.00,22.4,21.8,00.0,31.2,24.2,05.5,-000.5,0012.74,0007.74,0007.03
2022-02-24 19:53:00,,0821.4,4.99,0.00,22.4,21.8,00.0,31.2,24.3,05.4,-000.7,0012.67,0007.70,0007.01
2022-02-24 19:54:00,,0821.4,5.00,0.00,22.4,21.8,00.0,31.2,24.3,05.4,-000.1,0012.75,0007.72,0007.01
2022-02-24 19:55:00,,0821.3,5.00,0.00,22.4,21.8,00.0,31.2,24.2,05.5,-000.0,0012.55,0007.70,0007.00
2022-02-24 19:56:00,,0821.3,5.00,0.00,22.4,21.8,00.0,31.2,24.2,05.5,-000.0,0012.83,0007.68,0006.99
2022-02-24 19:57:00,,0821.3,5.00,0.00,22.4,21.8,00.0,31.2,24.2,05.5,0000.4,0013.16,0007.69,0007.00
2022-02-24 19:58:00,,0821.3,5.00,0.00,22.4,21.8,00.0,31.2,24.3,05.3,0000.3,0013.16,0007.71,0007.04
2022-02-24 19:59:00,,0821.3,5.01,0.00,22.4,21.8,00.0,31.2,24.3,05.3,0000.2,0012.60,0007.72,0007.07
